Pensacola, FL

11:36 PM CST on February 10, 2016 (GMT -0600)
Pensacola Naval Air Station

Weather History for KNPA - May, 2013

Change the Weather History Date:

Saturday, May 18, 2013

  Actual Average Record
Temperature  
Mean Temperature 76 °F -  
Max Temperature 81 °F 81 °F 91 °F (1998)
Min Temperature 71 °F 63 °F 46 °F (2011)
Cooling Degree Days 11    
Growing Degree Days 26 (Base 50)    
Moisture  
Dew Point 70 °F    
Average Humidity 83    
Maximum Humidity 94    
Minimum Humidity 71    
Precipitation  
Precipitation 0.00 in - - ()
Sea Level Pressure  
Sea Level Pressure 30.06 in    
Wind  
Wind Speed 10 mph (SSW)    
Max Wind Speed 13 mph    
Max Gust Speed 17 mph    
Visibility 10 miles    
Events      
Averages and records for this station are not official NWS values.
T = Trace of Precipitation, MM = Missing Value Source: NWS Daily Summary

Daily Weather History Graph

Daily Weather History Graph

Search for Another Location

Airport or City:

Trip Planner

Search our weather history database for the weather conditions in past years. The results will help you decide how hot, cold, wet, or windy it might be!

Date:

Astronomy

May. 18, 2013 Rise Set
Actual Time 5:53 AM CDT 7:38 PM CDT
Civil Twilight 5:26 AM CDT 8:05 PM CDT
Nautical Twilight 4:54 AM CDT 8:36 PM CDT
Astronomical Twilight 4:21 AM CDT 9:10 PM CDT
Moon 1:09 PM CDT (5/18) 1:15 AM CDT (5/18)
Length of Visible Light 14h 38m
Length of Day
13h 45m
First Quarter, 55% of the Moon is Illuminated
May 18
First Quarter
May 24
Full
May 31
Last Quarter
Jun 8
New
Jun 16
First Quarter

Hourly Weather History & Observations

Time (CDT) Temp. Heat Index Dew Point Humidity Pressure Visibility Wind Dir Wind Speed Gust Speed Precip Events Conditions
12:25 AM 73.4 °F - 69.8 °F 88% 30.06 in 10.0 mi South 11.5 mph - N/A   Overcast
12:33 AM 73.4 °F - 69.8 °F 88% 30.06 in 10.0 mi South 11.5 mph - N/A   Overcast
12:56 AM 73.0 °F - 70.0 °F 90% 30.06 in 10.0 mi SSW 10.4 mph - N/A   Overcast
1:56 AM 73.0 °F - 70.0 °F 90% 30.04 in 10.0 mi SSW 11.5 mph - N/A   Mostly Cloudy
2:56 AM 73.0 °F - 70.0 °F 90% 30.04 in 10.0 mi SSW 11.5 mph - N/A   Overcast
3:56 AM 73.0 °F - 70.0 °F 90% 30.04 in 10.0 mi SSW 11.5 mph - N/A   Mostly Cloudy
4:43 AM 71.6 °F - 69.8 °F 94% 30.03 in 10.0 mi SW 6.9 mph - N/A   Scattered Clouds
4:56 AM 72.0 °F - 70.0 °F 93% 30.04 in 10.0 mi SSW 8.1 mph - N/A   Partly Cloudy
5:56 AM 72.0 °F - 69.1 °F 91% 30.05 in 10.0 mi SSW 8.1 mph - N/A   Scattered Clouds
6:12 AM 73.4 °F - 69.8 °F 88% 30.05 in 10.0 mi South 8.1 mph - N/A   Mostly Cloudy
6:37 AM 73.4 °F - 69.8 °F 88% 30.06 in 10.0 mi South 6.9 mph - N/A   Scattered Clouds
6:56 AM 73.9 °F - 70.0 °F 87% 30.07 in 10.0 mi South 8.1 mph - N/A   Scattered Clouds
7:03 AM 73.4 °F - 69.8 °F 88% 30.06 in 10.0 mi South 8.1 mph - N/A   Mostly Cloudy
7:56 AM 75.9 °F - 70.0 °F 82% 30.09 in 10.0 mi SSW 6.9 mph - N/A   Overcast
8:32 AM 77.0 °F - 69.8 °F 78% 30.09 in 10.0 mi SSW 8.1 mph - N/A   Scattered Clouds
8:56 AM 78.1 °F - 69.1 °F 74% 30.11 in 10.0 mi SSW 8.1 mph - N/A   Scattered Clouds
9:56 AM 78.1 °F - 70.0 °F 76% 30.12 in 10.0 mi SSW 6.9 mph - N/A   Scattered Clouds
10:56 AM 80.1 °F 83.6 °F 71.1 °F 74% 30.11 in 10.0 mi SSW 9.2 mph - N/A   Scattered Clouds
11:56 AM 81.0 °F 84.9 °F 71.1 °F 72% 30.10 in 10.0 mi South 10.4 mph - N/A   Scattered Clouds
12:56 PM 80.1 °F 83.8 °F 72.0 °F 76% 30.09 in 10.0 mi South 12.7 mph - N/A   Scattered Clouds
1:47 PM 78.8 °F - 71.6 °F 78% 30.07 in 10.0 mi South 9.2 mph - N/A   Mostly Cloudy
1:56 PM 80.1 °F 83.6 °F 71.1 °F 74% 30.08 in 10.0 mi South 11.5 mph 17.3 mph N/A   Mostly Cloudy
2:16 PM 80.6 °F 84.6 °F 71.6 °F 74% 30.07 in 10.0 mi SSW 10.4 mph - N/A   Scattered Clouds
2:56 PM 81.0 °F 84.9 °F 71.1 °F 72% 30.07 in 10.0 mi South 11.5 mph - N/A   Scattered Clouds
3:56 PM 80.1 °F 83.2 °F 70.0 °F 71% 30.06 in 10.0 mi South 11.5 mph - N/A   Partly Cloudy
4:56 PM 79.0 °F - 71.1 °F 77% 30.05 in 10.0 mi South 11.5 mph - N/A   Partly Cloudy
5:30 PM 78.8 °F - 69.8 °F 74% 30.04 in 10.0 mi South 10.4 mph - N/A   Partly Cloudy
5:56 PM 78.1 °F - 69.1 °F 74% 30.04 in 10.0 mi South 11.5 mph - N/A   Partly Cloudy
6:56 PM 75.9 °F - 69.1 °F 79% 30.04 in 10.0 mi South 10.4 mph - N/A   Clear
7:56 PM 73.9 °F - 69.1 °F 85% 30.05 in 10.0 mi South 8.1 mph - N/A   Clear
8:56 PM 73.9 °F - 69.1 °F 85% 30.05 in 10.0 mi South 8.1 mph - N/A   Clear
9:56 PM 73.9 °F - 70.0 °F 87% 30.06 in 10.0 mi South 8.1 mph - N/A   Clear
10:56 PM 73.9 °F - 71.1 °F 91% 30.05 in 10.0 mi South 9.2 mph - N/A   Partly Cloudy
11:56 PM 73.0 °F - 71.1 °F 93% 30.04 in 10.0 mi South 9.2 mph - N/A   Scattered Clouds